Voltar ao catálogo

OV1-13

AtivoMilitarHEO
NORAD 3173·PAYLOAD·🇺🇸 United States

Lançado Apr 6, 1968 de Vandenberg Space Force Base

Loading…

Próximas Passagens (próximas 24 horas)

TLE

AtualizadoSource: Space-Track

Época: Sep 13, 2026, 21:36 UTC

1 03173U 68026A   26256.90011226  .00000049  00000-0  84711-4 0  9996
2 03173  99.9365  63.1505 3855134 221.6381 101.6518  7.25862630544643

Acompanhe OV1-13 em tempo real com AllMySat

Download on the App Store